COSMOS 1474

Satellite information

Favourite Embed

Satellite Type and Status

PAYLOADIN ORBIT

Key statistics

Satellite COSMOS 1474 at a glance.

Uptime

15507

Days in orbit

Revolutions

≈ 12.6

Per day

Orbit

LEO

Low Earth Orbit

Inclination

74.0

Latest

Satellite identification and parameters

Extended collection of information and parameters for COSMOS 1474.

Object identification

Identified? True

Debris? False

Object name: COSMOS 1474

International designator: 1983-069B

Object number (NORAD): 14172

Object ID (CCSDS): 14172

Country: COMMONWEALTH OF INDEPENDENT STATES (CIS)

Current information (Y/N): Y

RCS size: MEDIUM

Orbital parameters

Period: 114.588 minutes

Inclination: 74.0268 deg

SMA: 7814.845 km

Apoapsis: 1463.385 km

Periapsis: 1410.035 km

RAAN: 314.3903 deg

Eccentricy: 0.00341338

Argument of periapsis: 269.6846 deg

Mean anomaly: 118.4179 deg

Mean motion: 12.56672766 rev/day

Mean motion (dot): -0.00000023 rev/day2

B* drag term: -0.00003810234 1/REarth

Two-line elements (TLE)

Creation date: Dec. 19, 2025, 2:08 a.m.

Reference frame: TEME

Reference center: EARTH

Epoch: Dec. 18, 2025, 9:43 p.m. UTC

TLE line 0: 0 COSMOS 1474

TLE line 1: 1 14172U 83069B 25352.90509382 -.00000023 00000-0 -38102-4 0 9999

TLE line 2: 2 14172 74.0268 314.3903 0034134 269.6846 118.4179 12.56672766947631

Live tracking on map

Real-time ground track for satellite COSMOS 1474.

In-orbit conjunctions

A list of the most updated potential collisions computed for object COSMOS 1474.

Target Orbit TCA Probability of collision Miss distance Type
COSMOS 1293 LEO 2025-11-05 09:01:35 0.1026622 12.0 (m) PAYLOAD

Associated space launch

Military communications satellites

COSMOS 1474 was lifted into orbit during the mission ‘Kosmos-3M | Strela-1M 265-272’, on board a Kosmos-3M space rocket.

The launch took place on July 6, 1983, 12:31 a.m. from 132/2.

For more information about the launch, click the button.

Launch to space Kosmos-3M | Strela-1M 265-272
Kosmos-3M | Strela-1M 265-272

Agency: N/A

Status: Launch Successful

Launch date: July 6, 1983, 12:31 a.m. UTC

Rocket: Kosmos-3M

Launch pad: 132/2

Location: Plesetsk Cosmodrome, Russian Federation

...

Latest news about this satellite

There are no fresh news available about this satellite. Check back as we update our databases every day.


Newsletter sign-up

Weekly statistics, charts and insights to help you stay on top of the space industry.